| time (UTC) | temp C | wind direction | speed KPH | gust KPH | rain 1hr cm | rain 24hr cm | rain mn cm | humidity % | barometer mb |
| 20260507031103 | 12 | 221 | 9.7 | 19.3 | 0.00 | 0.33 | 0.33 | 94 | 1006.2 |
| 20260507025103 | 12 | 240 | 8.0 | 25.7 | 0.00 | 0.33 | 0.33 | 94 | 1006.3 |
| 20260507024102 | 12 | 238 | 9.7 | 20.9 | 0.00 | 0.33 | 0.33 | 94 | 1006.2 |
| 20260507023103 | 12 | 217 | 8.0 | 20.9 | 0.00 | 0.33 | 0.33 | 94 | 1006.3 |
| 20260507022102 | 12 | 209 | 9.7 | 16.1 | 0.00 | 0.33 | 0.33 | 94 | 1006.3 |
| 20260507021124 | 12 | 209 | 11.3 | 19.3 | 0.00 | 0.33 | 0.33 | 94 | 1006.3 |
| 20260507015102 | 12 | 214 | 6.4 | 20.9 | 0.00 | 0.33 | 0.33 | 94 | 1006.5 |
| 20260507014103 | 12 | 199 | 8.0 | 20.9 | 0.00 | 0.33 | 0.33 | 94 | 1006.7 |
| 20260507013103 | 12 | 206 | 11.3 | 19.3 | 0.00 | 0.33 | 0.33 | 94 | 1006.6 |
| 20260507012103 | 12 | 217 | 9.7 | 27.4 | 0.00 | 0.33 | 0.33 | 94 | 1006.8 |
| 20260507011103 | 12 | 207 | 14.5 | 27.4 | 0.00 | 0.33 | 0.33 | 94 | 1006.8 |
| 20260507005123 | 12 | 229 | 11.3 | 22.5 | 0.00 | 0.33 | 0.33 | 94 | 1006.9 |
| 20260507004125 | 12 | 223 | 9.7 | 32.2 | 0.00 | 0.33 | 0.33 | 94 | 1006.9 |
| 20260507003103 | 12 | 220 | 8.0 | 24.1 | 0.00 | 0.33 | 0.33 | 94 | 1006.8 |
| 20260507002102 | 12 | 229 | 14.5 | 24.1 | 0.00 | 0.33 | 0.33 | 94 | 1006.8 |
| 20260507001103 | 12 | 210 | 16.1 | 32.2 | 0.00 | 0.33 | 0.33 | 94 | 1006.8 |
| 20260507000123 | 12 | 211 | 14.5 | 33.8 | 0.00 | 0.33 | 0.33 | 94 | 1006.9 |
| 20260506235102 | 12 | 194 | 14.5 | 30.6 | 0.05 | 0.33 | 0.33 | 94 | 1006.7 |
| 20260506234103 | 12 | 210 | 11.3 | 38.6 | 0.05 | 0.33 | 0.33 | 93 | 1006.8 |
| 20260506233102 | 12 | 212 | 14.5 | 24.1 | 0.05 | 0.33 | 0.33 | 93 | 1006.8 |
| 20260506232103 | 12 | 207 | 16.1 | 27.4 | 0.00 | 0.28 | 0.28 | 93 | 1006.9 |
| 20260506231102 | 12 | 217 | 17.7 | 29.0 | 0.00 | 0.28 | 0.28 | 93 | 1006.8 |
| 20260506230124 | 12 | 217 | 17.7 | 40.2 | 0.00 | 0.28 | 0.28 | 93 | 1006.9 |
| 20260506225103 | 12 | 202 | 20.9 | 33.8 | 0.15 | 0.25 | 0.25 | 93 | 1006.7 |
| 20260506224102 | 12 | 208 | 20.9 | 38.6 | 0.13 | 0.23 | 0.23 | 92 | 1006.7 |
| 20260506222102 | 12 | 209 | 20.9 | 37.0 | 0.05 | 0.15 | 0.15 | 92 | 1006.8 |
| 20260506221103 | 13 | 213 | 16.1 | 38.6 | 0.00 | 0.10 | 0.10 | 92 | 1007.3 |
| 20260506215103 | 13 | 216 | 19.3 | 33.8 | 0.05 | 0.10 | 0.10 | 91 | 1007.3 |
| 20260506214102 | 13 | 203 | 16.1 | 33.8 | 0.05 | 0.10 | 0.10 | 91 | 1007.2 |
| 20260506213124 | 13 | 211 | 20.9 | 33.8 | 0.03 | 0.08 | 0.08 | 91 | 1007.2 |
| 20260506212103 | 13 | 214 | 12.9 | 38.6 | 0.03 | 0.08 | 0.08 | 91 | 1007.4 |
| 20260506211102 | 13 | 201 | 17.7 | 33.8 | 0.03 | 0.08 | 0.08 | 91 | 1007.5 |
| 20260506210124 | 13 | 206 | 17.7 | 41.8 | 0.00 | 0.05 | 0.05 | 90 | 1007.5 |
| 20260506205103 | 13 | 204 | 14.5 | 33.8 | 0.00 | 0.05 | 0.05 | 90 | 1007.6 |
| 20260506204102 | 13 | 207 | 14.5 | 30.6 | 0.00 | 0.05 | 0.05 | 89 | 1007.6 |
| 20260506203124 | 13 | 219 | 19.3 | 35.4 | 0.00 | 0.05 | 0.05 | 89 | 1007.8 |
| 20260506202103 | 13 | 234 | 17.7 | 33.8 | 0.00 | 0.05 | 0.05 | 89 | 1007.8 |
| 20260506201102 | 13 | 212 | 24.1 | 38.6 | 0.00 | 0.05 | 0.05 | 90 | 1007.9 |
| 20260506200124 | 13 | 209 | 14.5 | 35.4 | 0.00 | 0.05 | 0.05 | 89 | 1008.0 |
| 20260506195102 | 14 | 205 | 17.7 | 27.4 | 0.05 | 0.05 | 0.05 | 88 | 1008.2 |
| 20260506194124 | 15 | 206 | 16.1 | 32.2 | 0.00 | 0.00 | 0.00 | 86 | 1008.2 |
| 20260506193103 | 15 | 202 | 20.9 | 40.2 | 0.00 | 0.00 | 0.00 | 84 | 1008.2 |
| 20260506192102 | 15 | 209 | 16.1 | 33.8 | 0.00 | 0.00 | 0.00 | 83 | 1008.2 |
| 20260506191103 | 16 | 202 | 12.9 | 35.4 | 0.00 | 0.00 | 0.00 | 83 | 1008.3 |
| 20260506185103 | 16 | 208 | 17.7 | 32.2 | 0.00 | 0.00 | 0.00 | 83 | 1008.3 |
| 20260506184102 | 16 | 197 | 22.5 | 48.3 | 0.00 | 0.00 | 0.00 | 82 | 1008.4 |
| 20260506183103 | 16 | 202 | 22.5 | 40.2 | 0.00 | 0.00 | 0.00 | 82 | 1008.7 |
| 20260506182103 | 16 | 196 | 20.9 | 38.6 | 0.00 | 0.00 | 0.00 | 81 | 1008.7 |
| 20260506181102 | 16 | 209 | 24.1 | 38.6 | 0.00 | 0.00 | 0.00 | 81 | 1008.7 |
| 20260506175103 | 16 | 200 | 24.1 | 43.5 | 0.00 | 0.00 | 0.00 | 80 | 1009.1 |
| 20260506174102 | 17 | 200 | 22.5 | 48.3 | 0.00 | 0.00 | 0.00 | 79 | 1009.2 |
| 20260506173103 | 17 | 208 | 22.5 | 57.9 | 0.00 | 0.00 | 0.00 | 79 | 1009.5 |
| 20260506172124 | 17 | 194 | 27.4 | 46.7 | 0.00 | 0.00 | 0.00 | 78 | 1009.4 |
| 20260506171102 | 17 | 213 | 27.4 | 48.3 | 0.00 | 0.00 | 0.00 | 78 | 1009.2 |
| 20260506170103 | 17 | 211 | 19.3 | 38.6 | 0.00 | 0.00 | 0.00 | 80 | 1009.5 |
| 20260506165102 | 17 | 215 | 29.0 | 43.5 | 0.00 | 0.00 | 0.00 | 79 | 1009.5 |
| 20260506164103 | 17 | 203 | 20.9 | 51.5 | 0.00 | 0.00 | 0.00 | 79 | 1009.8 |
| 20260506163103 | 17 | 210 | 22.5 | 51.5 | 0.00 | 0.00 | 0.00 | 79 | 1009.9 |
| 20260506162102 | 17 | 194 | 25.7 | 40.2 | 0.00 | 0.00 | 0.00 | 78 | 1009.9 |
| 20260506161103 | 17 | 203 | 29.0 | 49.9 | 0.00 | 0.00 | 0.00 | 78 | 1010.2 |
| 20260506155102 | 17 | 205 | 20.9 | 46.7 | 0.00 | 0.00 | 0.00 | 78 | 1010.3 |
| 20260506154102 | 18 | 203 | 24.1 | 40.2 | 0.00 | 0.00 | 0.00 | 77 | 1010.5 |
| 20260506153124 | 17 | 201 | 19.3 | 46.7 | 0.00 | 0.00 | 0.00 | 78 | 1010.5 |
| 20260506152103 | 17 | 201 | 20.9 | 53.1 | 0.00 | 0.00 | 0.00 | 79 | 1010.5 |
| 20260506151102 | 17 | 203 | 25.7 | 41.8 | 0.00 | 0.00 | 0.00 | 80 | 1010.6 |
| 20260506145102 | 16 | 202 | 22.5 | 40.2 | 0.00 | 0.00 | 0.00 | 80 | 1010.6 |
| 20260506144103 | 17 | 214 | 20.9 | 38.6 | 0.00 | 0.00 | 0.00 | 80 | 1010.5 |
| 20260506143102 | 17 | 213 | 17.7 | 40.2 | 0.00 | 0.00 | 0.00 | 80 | 1010.5 |
| 20260506142102 | 17 | 226 | 22.5 | 45.1 | 0.00 | 0.00 | 0.00 | 79 | 1010.6 |
| 20260506141103 | 17 | 208 | 19.3 | 38.6 | 0.00 | 0.00 | 0.00 | 81 | 1010.2 |
| 20260506135124 | 17 | 205 | 19.3 | 35.4 | 0.00 | 0.00 | 0.00 | 79 | 1010.5 |
| 20260506134102 | 17 | 198 | 22.5 | 32.2 | 0.00 | 0.00 | 0.00 | 79 | 1010.8 |
| 20260506133103 | 17 | 220 | 17.7 | 35.4 | 0.00 | 0.00 | 0.00 | 81 | 1011.0 |
| 20260506132102 | 16 | 209 | 17.7 | 30.6 | 0.00 | 0.00 | 0.00 | 82 | 1010.9 |
| 20260506131104 | 16 | 219 | 19.3 | 43.5 | 0.00 | 0.00 | 0.00 | 83 | 1010.9 |
| 20260506130124 | 16 | 212 | 17.7 | 38.6 | 0.00 | 0.00 | 0.00 | 84 | 1010.9 |
| 20260506125102 | 15 | 203 | 16.1 | 37.0 | 0.00 | 0.00 | 0.00 | 84 | 1010.9 |
| 20260506124102 | 15 | 203 | 17.7 | 49.9 | 0.00 | 0.00 | 0.00 | 85 | 1010.7 |
| 20260506123103 | 15 | 211 | 22.5 | 35.4 | 0.00 | 0.00 | 0.00 | 85 | 1010.8 |
| 20260506122102 | 15 | 199 | 22.5 | 37.0 | 0.00 | 0.00 | 0.00 | 86 | 1010.8 |
| 20260506121103 | 14 | 195 | 17.7 | 35.4 | 0.00 | 0.00 | 0.00 | 87 | 1011.0 |
| 20260506120103 | 14 | 212 | 17.7 | 33.8 | 0.00 | 0.00 | 0.00 | 88 | 1011.1 |
| 20260506115102 | 14 | 193 | 14.5 | 38.6 | 0.00 | 0.00 | 0.00 | 88 | 1011.2 |
| 20260506114103 | 13 | 204 | 14.5 | 27.4 | 0.00 | 0.00 | 0.00 | 89 | 1011.1 |
| 20260506113103 | 13 | 203 | 19.3 | 33.8 | 0.00 | 0.00 | 0.00 | 89 | 1011.3 |
| 20260506112102 | 13 | 198 | 17.7 | 27.4 | 0.00 | 0.00 | 0.00 | 90 | 1011.4 |
| 20260506111103 | 13 | 205 | 16.1 | 35.4 | 0.00 | 0.00 | 0.00 | 90 | 1011.4 |
| 20260506105103 | 13 | 195 | 20.9 | 32.2 | 0.00 | 0.00 | 0.00 | 90 | 1011.1 |
| 20260506104102 | 13 | 189 | 17.7 | 27.4 | 0.00 | 0.00 | 0.00 | 90 | 1011.1 |
| 20260506103103 | 13 | 206 | 14.5 | 27.4 | 0.00 | 0.00 | 0.00 | 91 | 1011.2 |
| 20260506102102 | 13 | 209 | 19.3 | 30.6 | 0.00 | 0.00 | 0.00 | 91 | 1011.1 |
| 20260506101103 | 13 | 212 | 14.5 | 33.8 | 0.00 | 0.00 | 0.00 | 91 | 1010.9 |
| 20260506095125 | 13 | 212 | 17.7 | 30.6 | 0.00 | 0.00 | 0.00 | 91 | 1010.8 |
| 20260506094103 | 12 | 206 | 11.3 | 25.7 | 0.00 | 0.00 | 0.00 | 91 | 1010.8 |
| 20260506093102 | 12 | 214 | 17.7 | 32.2 | 0.00 | 0.00 | 0.00 | 91 | 1010.9 |
| 20260506092104 | 12 | 193 | 16.1 | 30.6 | 0.00 | 0.00 | 0.00 | 91 | 1010.9 |
| 20260506091102 | 12 | 193 | 14.5 | 22.5 | 0.00 | 0.00 | 0.00 | 91 | 1011.0 |
| 20260506085102 | 12 | 197 | 12.9 | 29.0 | 0.00 | 0.00 | 0.00 | 91 | 1011.2 |
| 20260506084124 | 12 | 193 | 12.9 | 20.9 | 0.00 | 0.00 | 0.00 | 91 | 1011.2 |
| 20260506083102 | 12 | 210 | 11.3 | 25.7 | 0.00 | 0.00 | 0.00 | 91 | 1011.3 |
| 20260506082103 | 12 | 209 | 12.9 | 22.5 | 0.00 | 0.00 | 0.00 | 90 | 1011.4 |
| 20260506081102 | 13 | 204 | 12.9 | 22.5 | 0.00 | 0.00 | 0.00 | 90 | 1011.4 |
| 20260506080123 | 13 | 208 | 14.5 | 32.2 | 0.00 | 0.00 | 0.00 | 90 | 1011.3 |
| 20260506073103 | 13 | 203 | 11.3 | 24.1 | 0.00 | 0.00 | 0.00 | 90 | 1011.3 |
| 20260506072102 | 12 | 195 | 11.3 | 27.4 | 0.00 | 0.00 | 0.00 | 90 | 1011.3 |
| 20260506071103 | 13 | 198 | 16.1 | 29.0 | 0.00 | 0.00 | 0.00 | 90 | 1011.2 |
| 20260506070103 | 13 | 195 | 12.9 | 29.0 | 0.00 | 0.00 | 0.00 | 89 | 1011.2 |
| 20260506062103 | 13 | 218 | 16.1 | 30.6 | 0.00 | 0.00 | 0.00 | 88 | 1011.1 |
| 20260506061123 | 13 | 211 | 14.5 | 29.0 | 0.00 | 0.00 | 0.00 | 88 | 1011.1 |
| 20260506051124 | 13 | 212 | 12.9 | 29.0 | 0.00 | 0.00 | 0.00 | 87 | 1011.4 |
| 20260506045103 | 13 | 233 | 11.3 | 29.0 | 0.00 | 0.00 | 0.00 | 87 | 1011.8 |
| 20260506044104 | 13 | 220 | 12.9 | 27.4 | 0.00 | 0.00 | 0.00 | 87 | 1011.8 |
| 20260506043103 | 13 | 208 | 11.3 | 30.6 | 0.00 | 0.00 | 0.00 | 87 | 1011.8 |
| 20260506042102 | 13 | 212 | 11.3 | 29.0 | 0.00 | 0.00 | 0.00 | 87 | 1011.8 |
| 20260506041103 | 13 | 205 | 12.9 | 25.7 | 0.00 | 0.00 | 0.00 | 86 | 1011.6 |
| 20260506035103 | 13 | 198 | 12.9 | 29.0 | 0.00 | 0.00 | 0.00 | 86 | 1011.6 |
| 20260506034103 | 13 | 210 | 12.9 | 33.8 | 0.00 | 0.00 | 0.00 | 85 | 1011.6 |
| 20260506033102 | 13 | 209 | 16.1 | 35.4 | 0.00 | 0.00 | 0.00 | 85 | 1011.6 |
| 20260506032103 | 13 | 216 | 14.5 | 27.4 | 0.00 | 0.00 | 0.00 | 84 | 1011.4 |